Location: ????????
(55.4000°N, 39.1167°E)
Time: 13:46:59
(UTC+00:00)

Cosmos 2333 Rocket - Pass Details

Date: 19 May 2025
Orbit: 840 x 862 km, 70.8° (Epoch: 19 June)

Event Time Altitude Azimuth Distance (km) Brightness Sun altitude
Rises 18:36:25 0° 320° (NW) 3,447 8.1 -7.0°
Reaches altitude 10° 18:39:16 10° 332° (NNW) 2,505 6.3 -7.3°
Maximum altitude 18:44:10 28° 30° (NNE) 1,571 3.9 -7.7°
Drops below altitude 10° 18:49:01 10° 89° (E) 2,486 4.3 -8.1°
Sets 18:51:50 0° 101° (E) 3,415 4.9 -8.3°
